TimeCDT,TemperatureF,Dew PointF,Humidity,Sea Level PressureIn,VisibilityMPH,Wind Direction,Wind SpeedMPH,Gust SpeedMPH,PrecipitationIn,Events,Conditions,WindDirDegrees,DateUTC
12:15 AM,50.9,44.2,78,29.88,10.0,SSW,15.0,19.6,N/A,,Mostly Cloudy,210,2014-03-19 05:15:00
12:35 AM,50.9,44.6,79,29.86,10.0,SSW,13.8,23.0,N/A,,Clear,200,2014-03-19 05:35:00
12:55 AM,50.7,44.6,80,29.86,10.0,South,15.0,18.4,N/A,,Clear,190,2014-03-19 05:55:00
1:15 AM,50.4,44.6,81,29.86,10.0,South,16.1,20.7,N/A,,Clear,190,2014-03-19 06:15:00
1:35 AM,50.0,44.6,82,29.85,10.0,South,12.7,17.3,N/A,,Clear,190,2014-03-19 06:35:00
1:55 AM,50.0,44.6,82,29.85,10.0,South,10.4,-,N/A,,Clear,190,2014-03-19 06:55:00
2:15 AM,50.0,44.6,82,29.85,10.0,SSW,11.5,-,N/A,,Clear,200,2014-03-19 07:15:00
2:35 AM,50.4,44.8,81,29.85,10.0,SSW,15.0,-,N/A,,Clear,200,2014-03-19 07:35:00
2:55 AM,50.4,44.8,81,29.83,10.0,SSW,15.0,20.7,N/A,,Clear,200,2014-03-19 07:55:00
3:15 AM,50.2,44.8,82,29.83,10.0,SSW,15.0,19.6,N/A,,Clear,200,2014-03-19 08:15:00
3:35 AM,50.2,45.0,82,29.83,10.0,SSW,12.7,18.4,N/A,,Clear,200,2014-03-19 08:35:00
3:55 AM,50.4,45.1,82,29.82,10.0,SSW,11.5,20.7,N/A,,Clear,200,2014-03-19 08:55:00
4:15 AM,50.9,45.5,82,29.83,10.0,SSW,15.0,23.0,N/A,,Clear,200,2014-03-19 09:15:00
4:35 AM,51.3,45.5,81,29.82,10.0,SSW,13.8,21.9,N/A,,Clear,200,2014-03-19 09:35:00
4:55 AM,51.3,45.5,81,29.82,10.0,SSW,15.0,20.7,N/A,,Clear,200,2014-03-19 09:55:00
5:15 AM,51.4,45.7,81,29.82,10.0,SSW,15.0,21.9,N/A,,Clear,200,2014-03-19 10:15:00
5:35 AM,51.8,45.9,80,29.82,10.0,SSW,12.7,18.4,N/A,,Scattered Clouds,200,2014-03-19 10:35:00
5:55 AM,52.0,46.2,81,29.82,10.0,SSW,11.5,19.6,N/A,,Mostly Cloudy,200,2014-03-19 10:55:00
6:15 AM,52.3,46.4,80,29.82,10.0,SSW,15.0,23.0,N/A,,Overcast,210,2014-03-19 11:15:00
6:35 AM,52.2,46.9,82,29.82,10.0,SSW,16.1,23.0,N/A,Rain,Light Rain,210,2014-03-19 11:35:00
6:55 AM,52.2,47.3,83,29.81,10.0,SSW,15.0,21.9,N/A,,Overcast,210,2014-03-19 11:55:00
7:15 AM,52.3,46.9,82,29.81,10.0,SSW,17.3,25.3,N/A,,Overcast,200,2014-03-19 12:15:00
7:35 AM,52.7,46.9,81,29.81,10.0,SSW,17.3,25.3,N/A,,Overcast,210,2014-03-19 12:35:00
7:55 AM,52.9,47.3,81,29.81,10.0,SSW,11.5,20.7,N/A,,Overcast,210,2014-03-19 12:55:00
8:15 AM,53.6,47.3,79,29.82,10.0,SSW,18.4,25.3,N/A,,Overcast,210,2014-03-19 13:15:00
8:35 AM,53.8,47.5,79,29.82,10.0,SSW,13.8,23.0,N/A,,Overcast,210,2014-03-19 13:35:00
8:55 AM,54.0,47.8,80,29.83,10.0,SW,16.1,26.5,N/A,,Overcast,220,2014-03-19 13:55:00
9:15 AM,54.3,48.2,80,29.84,10.0,SW,18.4,-,N/A,,Overcast,230,2014-03-19 14:15:00
9:35 AM,54.3,48.4,80,29.85,10.0,SW,16.1,24.2,N/A,,Overcast,220,2014-03-19 14:35:00
9:55 AM,55.0,48.7,79,29.85,10.0,SW,17.3,24.2,N/A,,Overcast,230,2014-03-19 14:55:00
10:15 AM,55.8,49.5,79,29.86,10.0,SW,18.4,25.3,N/A,,Overcast,230,2014-03-19 15:15:00
10:35 AM,56.3,49.3,77,29.86,10.0,WSW,20.7,29.9,N/A,,Overcast,240,2014-03-19 15:35:00
10:55 AM,56.7,49.3,76,29.87,10.0,WSW,20.7,28.8,N/A,,Overcast,240,2014-03-19 15:55:00
11:15 AM,56.5,48.9,76,29.88,10.0,West,19.6,33.4,N/A,,Overcast,260,2014-03-19 16:15:00
11:35 AM,57.9,48.0,70,29.88,10.0,West,24.2,28.8,N/A,,Overcast,260,2014-03-19 16:35:00
11:55 AM,58.8,46.6,64,29.88,10.0,West,23.0,34.5,N/A,,Mostly Cloudy,260,2014-03-19 16:55:00
12:15 PM,60.3,44.6,56,29.89,10.0,West,25.3,33.4,N/A,,Scattered Clouds,260,2014-03-19 17:15:00
12:35 PM,60.1,43.7,55,29.90,10.0,WNW,23.0,29.9,N/A,,Mostly Cloudy,290,2014-03-19 17:35:00
12:55 PM,60.3,45.1,57,29.91,10.0,West,18.4,28.8,N/A,,Overcast,280,2014-03-19 17:55:00
1:15 PM,59.5,44.6,58,29.92,10.0,West,19.6,28.8,N/A,,Mostly Cloudy,280,2014-03-19 18:15:00
1:35 PM,60.4,44.6,56,29.93,10.0,WNW,17.3,26.5,N/A,,Mostly Cloudy,290,2014-03-19 18:35:00
1:55 PM,59.2,43.5,56,29.93,10.0,WNW,15.0,25.3,N/A,,Overcast,300,2014-03-19 18:55:00
2:15 PM,59.7,43.0,54,29.93,10.0,WNW,16.1,23.0,N/A,,Overcast,300,2014-03-19 19:15:00
2:35 PM,61.0,43.7,53,29.93,10.0,WNW,17.3,23.0,N/A,,Mostly Cloudy,300,2014-03-19 19:35:00
2:55 PM,58.6,42.1,54,29.94,10.0,WNW,11.5,-,N/A,,Mostly Cloudy,290,2014-03-19 19:55:00
3:15 PM,59.2,43.3,56,29.95,10.0,WNW,15.0,21.9,N/A,,Mostly Cloudy,300,2014-03-19 20:15:00
3:35 PM,58.3,42.6,56,29.96,10.0,NNW,12.7,21.9,N/A,,Overcast,330,2014-03-19 20:35:00
3:55 PM,58.1,42.6,56,29.96,10.0,NW,16.1,21.9,N/A,,Mostly Cloudy,310,2014-03-19 20:55:00
4:15 PM,59.5,43.7,56,29.97,10.0,NW,16.1,20.7,N/A,,Mostly Cloudy,310,2014-03-19 21:15:00
4:35 PM,58.8,42.8,55,29.98,10.0,NW,11.5,18.4,N/A,,Scattered Clouds,310,2014-03-19 21:35:00
4:55 PM,57.6,42.1,56,29.98,10.0,NW,11.5,17.3,N/A,,Mostly Cloudy,310,2014-03-19 21:55:00
5:15 PM,57.2,41.5,56,29.99,10.0,NW,10.4,-,N/A,,Overcast,320,2014-03-19 22:15:00
5:35 PM,57.2,41.7,56,30.00,10.0,WNW,12.7,17.3,N/A,,Mostly Cloudy,300,2014-03-19 22:35:00
5:55 PM,56.8,40.6,55,30.01,10.0,NW,15.0,19.6,N/A,,Scattered Clouds,310,2014-03-19 22:55:00
6:15 PM,56.3,40.3,55,30.02,10.0,NW,11.5,18.4,N/A,,Clear,320,2014-03-19 23:15:00
6:35 PM,54.9,39.7,57,30.02,10.0,NNW,11.5,-,N/A,,Clear,330,2014-03-19 23:35:00
6:55 PM,52.5,40.5,64,30.03,10.0,NNW,12.7,17.3,N/A,,Clear,340,2014-03-19 23:55:00
7:15 PM,50.9,39.9,66,30.04,10.0,NNW,12.7,18.4,N/A,,Clear,340,2014-03-20 00:15:00
7:35 PM,49.5,39.6,69,30.05,10.0,NNW,10.4,16.1,N/A,,Clear,340,2014-03-20 00:35:00
7:55 PM,48.9,38.8,68,30.06,10.0,NNW,10.4,-,N/A,,Clear,340,2014-03-20 00:55:00
8:15 PM,48.4,38.5,69,30.08,10.0,NNW,10.4,-,N/A,,Clear,330,2014-03-20 01:15:00
8:35 PM,47.3,38.3,71,30.09,10.0,NNW,9.2,-,N/A,,Clear,340,2014-03-20 01:35:00
8:55 PM,46.6,37.6,71,30.10,10.0,NNW,6.9,-,N/A,,Clear,340,2014-03-20 01:55:00
9:15 PM,45.7,37.4,73,30.11,10.0,North,9.2,-,N/A,,Clear,350,2014-03-20 02:15:00
9:35 PM,44.4,37.0,75,30.12,10.0,NNW,9.2,-,N/A,,Clear,340,2014-03-20 02:35:00
9:55 PM,44.6,36.9,74,30.12,10.0,North,9.2,16.1,N/A,,Clear,350,2014-03-20 02:55:00
10:15 PM,43.9,36.9,76,30.13,10.0,North,11.5,-,N/A,,Clear,350,2014-03-20 03:15:00
10:35 PM,42.8,36.5,78,30.14,10.0,North,11.5,-,N/A,,Clear,360,2014-03-20 03:35:00
10:55 PM,42.1,36.1,79,30.14,10.0,North,11.5,-,N/A,,Clear,360,2014-03-20 03:55:00
11:15 PM,41.2,35.6,81,30.14,10.0,North,8.1,-,N/A,,Clear,10,2014-03-20 04:15:00
11:35 PM,39.6,34.9,83,30.15,10.0,North,5.8,-,N/A,,Clear,10,2014-03-20 04:35:00
11:55 PM,39.4,34.3,82,30.15,10.0,North,4.6,-,N/A,,Clear,10,2014-03-20 04:55:00